Location: Unspecified
(0.0000°N, 0.0000°E)
Time: 03:19:22
(UTC+00:00)

Vanguard 2 - Pass Details

Date: 15 December 2018
Orbit: 553 x 2939 km, 32.9° (Epoch: 18 March)

Event Time Altitude Azimuth Distance (km) Brightness Sun altitude
Rises 03:52:07 0° 303° (WNW) 5,552 - -28.0°
Reaches altitude 10° 03:55:18 10° 302° (WNW) 4,808 - -27.3°
Exits shadow 04:01:42 36° 298° (WNW) 3,535 10.3 -25.8°
Maximum altitude 04:10:19 81° 216° (SW) 2,858 10.2 -23.9°
Drops below altitude 10° 04:28:28 10° 129° (SE) 5,646 13.0 -19.8°
Sets 04:32:35 0° 128° (SE) 6,519 13.8 -18.9°
